Temp
-9 -9 -9 -9 -9 -9 -9 -9 -9 -9 -9 -9 -9 -9 -9 -9 -9 -9 -9 -9 -9 -9 -9 -8 -8 -8 -8 -8 -9 -9 -8 -9 -9 -9 -9 -10 -10 -11 -13 -13 -14 -14 -14 -14 -14
-10 -10 -10 -10 -10 -10 -10 -10 -10 -9 -9 -9 -9 -9 -9 -9 -9 -9 -9 -9 -9 -9 -8 -8 -8 -8 -8 -9 -9 -9 -9 -9 -9 -10 -10 -11 -11 -12 -13 -14 -14 -15 -15 -15 -16
-10 -10 -10 -10 -10 -10 -10 -10 -10 -10 -9 -9 -9 -9 -9 -9 -9 -9 -9 -9 -9 -8 -8 -8 -8 -8 -9 -9 -9 -9 -9 -10 -10 -10 -11 -11 -12 -13 -14 -15 -15 -15 -16 -18 -19
-10 -10 -10 -10 -10 -10 -10 -10 -10 -10 -10 -9 -9 -9 -9 -9 -9 -9 -9 -9 -9 -9 -9 -8 -8 -9 -9 -9 -9 -10 -10 -10 -10 -10 -11 -12 -13 -14 -15 -15 -15 -15 -18 -19 -20
-10 -10 -10 -10 -10 -10 -10 -10 -10 -10 -10 -9 -9 -9 -9 -9 -9 -9 -9 -9 -9 -9 -8 -8 -8 -9 -9 -9 -10 -10 -10 -10 -10 -10 -11 -13 -14 -14 -15 -15 -15 -17 -19 -20 -22
-10 -10 -10 -10 -10 -10 -10 -10 -10 -10 -10 -9 -9 -9 -9 -9 -9 -9 -9 -9 -9 -9 -8 -8 -9 -9 -9 -10 -10 -10 -10 -10 -11 -11 -12 -13 -14 -15 -15 -15 -16 -19 -20 -21 -22
-11 -11 -11 -11 -10 -10 -10 -10 -10 -10 -10 -9 -9 -9 -9 -9 -10 -10 -9 -9 -9 -9 -8 -9 -9 -9 -9 -10 -10 -10 -11 -10 -11 -12 -12 -14 -14 -15 -15 -16 -17 -19 -20 -22 -22
-11 -11 -11 -11 -11 -10 -10 -10 -10 -10 -10 -10 -10 -10 -10 -10 -10 -10 -9 -9 -9 -9 -9 -9 -9 -9 -10 -10 -10 -11 -11 -11 -11 -12 -13 -14 -15 -15 -16 -16 -19 -20 -20 -22 -22
-11 -11 -11 -11 -11 -11 -11 -10 -10 -10 -10 -10 -10 -10 -10 -10 -10 -10 -9 -9 -9 -9 -9 -9 -9 -9 -10 -10 -11 -11 -11 -11 -11 -12 -14 -15 -15 -15 -16 -17 -19 -20 -21 -21 -22
-11 -11 -11 -11 -11 -11 -11 -10 -10 -10 -10 -10 -10 -10 -10 -10 -10 -10 -10 -9 -9 -9 -9 -9 -9 -10 -10 -10 -10 -11 -11 -11 -11 -13 -15 -15 -16 -16 -16 -17 -20 -21 -21 -21 -22
-11 -11 -11 -11 -11 -11 -11 -11 -10 -10 -10 -10 -10 -10 -10 -10 -10 -9 -9 -9 -9 -9 -9 -9 -10 -10 -10 -10 -11 -11 -11 -12 -12 -13 -14 -15 -16 -16 -16 -17 -18 -21 -21 -22 -22
-11 -11 -11 -11 -11 -11 -10 -10 -10 -10 -10 -10 -10 -10 -10 -10 -10 -10 -10 -10 -9 -9 -9 -10 -10 -10 -10 -11 -11 -12 -12 -12 -13 -13 -14 -15 -16 -16 -17 -17 -18 -20 -21 -21 -21
-10 -11 -10 -10 -10 -11 -10 -10 -10 -10 -10 -10 -10 -10 -10 -10 -10 -10 -10 -10 -10 -9 -10 -10 -10 -10 -11 -11 -12 -12 -12 -12 -12 -13 -14 -15 -16 -17 -17 -18 -18 -19 -20 -21 -21
-10 -10 -10 -10 -10 -10 -10 -10 -10 -10 -10 -10 -10 -10 -10 -10 -10 -10 -9 -10 -10 -10 -10 -10 -10 -11 -11 -11 -12 -12 -12 -12 -13 -13 -14 -15 -16 -17 -17 -18 -18 -19 -19 -20 -20
-10 -10 -10 -10 -10 -10 -10 -10 -10 -10 -10 -11 -11 -11 -11 -10 -10 -10 -10 -10 -10 -10 -11 -11 -11 -11 -11 -12 -12 -13 -12 -12 -12 -13 -14 -15 -16 -17 -17 -18 -18 -18 -19 -19 -20
-10 -10 -10 -10 -10 -10 -10 -10 -10 -11 -11 -11 -11 -11 -11 -11 -11 -10 -10 -11 -11 -11 -11 -11 -11 -11 -12 -12 -12 -13 -12 -12 -12 -13 -14 -15 -17 -17 -18 -18 -18 -18 -19 -19 -19
-10 -10 -10 -11 -11 -11 -11 -11 -11 -11 -11 -11 -11 -12 -11 -11 -11 -11 -11 -11 -11 -11 -11 -12 -12 -12 -12 -12 -13 -13 -13 -13 -12 -13 -14 -16 -17 -18 -18 -18 -18 -18 -19 -19 -19
-11 -11 -11 -11 -11 -11 -11 -11 -11 -11 -11 -12 -12 -12 -12 -12 -11 -11 -11 -11 -11 -11 -11 -12 -12 -12 -12 -13 -13 -13 -13 -14 -14 -14 -14 -15 -17 -17 -18 -18 -18 -18 -18 -18 -19
-11 -11 -11 -11 -11 -12 -12 -12 -12 -12 -12 -12 -12 -12 -12 -12 -12 -11 -11 -11 -11 -11 -11 -11 -12 -13 -13 -13 -14 -14 -14 -14 -14 -13 -14 -15 -16 -16 -18 -18 -18 -18 -18 -18 -19
-12 -12 -12 -12 -12 -12 -12 -12 -12 -12 -12 -13 -13 -13 -12 -12 -12 -12 -12 -12 -12 -12 -12 -12 -12 -13 -13 -13 -14 -14 -15 -14 -14 -15 -15 -14 -17 -18 -18 -18 -18 -18 -18 -18 -19
-12 -12 -12 -12 -12 -12 -12 -12 -12 -13 -13 -13 -13 -13 -13 -13 -13 -12 -12 -12 -12 -12 -12 -12 -13 -13 -13 -14 -14 -14 -15 -15 -15 -15 -16 -15 -17 -17 -18 -18 -18 -18 -18 -18 -19
-12 -12 -12 -12 -12 -12 -12 -12 -12 -13 -13 -13 -13 -13 -13 -13 -12 -12 -12 -12 -12 -12 -12 -12 -12 -13 -13 -14 -14 -15 -15 -15 -15 -15 -16 -15 -17 -17 -18 -18 -18 -18 -18 -18 -19
-13 -13 -12 -12 -12 -12 -13 -13 -13 -13 -13 -13 -13 -13 -13 -13 -12 -12 -12 -12 -12 -12 -12 -12 -12 -13 -13 -13 -14 -14 -15 -15 -15 -15 -15 -16 -16 -17 -18 -18 -19 -18 -18 -18 -19
-13 -13 -13 -13 -13 -13 -13 -13 -13 -13 -13 -13 -13 -13 -13 -13 -13 -12 -12 -12 -13 -13 -12 -12 -13 -14 -15 -15 -15 -15 -15 -15 -15 -15 -15 -16 -15 -15 -16 -17 -18 -18 -18 -18 -19
-13 -13 -13 -13 -13 -13 -13 -13 -13 -13 -13 -13 -13 -13 -13 -13 -12 -12 -12 -12 -13 -13 -13 -13 -12 -12 -14 -14 -15 -15 -15 -15 -15 -15 -15 -14 -15 -16 -17 -17 -18 -18 -18 -18 -18
-13 -13 -13 -13 -13 -13 -13 -13 -13 -13 -13 -13 -13 -13 -13 -13 -13 -12 -12 -12 -12 -12 -13 -13 -12 -11 -12 -13 -13 -14 -15 -14 -15 -16 -15 -15 -15 -16 -16 -18 -18 -19 -18 -18 -18
-13 -13 -13 -13 -13 -13 -13 -13 -13 -13 -13 -13 -13 -13 -13 -13 -13 -13 -12 -12 -13 -13 -13 -13 -13 -13 -12 -12 -13 -14 -14 -14 -14 -15 -15 -15 -15 -15 -16 -18 -18 -18 -19 -18 -18
Height
5873 5873 5874 5873 5873 5873 5872 5872 5871 5870 5870 5869 5868 5867 5866 5864 5863 5861 5860 5857 5856 5854 5852 5850 5847 5844 5840 5837 5832 5827 5822 5818 5811 5805 5797 5790 5780 5768 5757 5748 5740 5731 5721 5713 5705
5873 5873 5873 5873 5873 5872 5872 5871 5870 5870 5869 5868 5867 5867 5865 5863 5861 5859 5857 5856 5854 5852 5850 5847 5844 5841 5837 5833 5827 5822 5818 5810 5804 5797 5788 5778 5768 5756 5746 5732 5720 5711 5701 5686 5676
5872 5872 5873 5872 5872 5872 5871 5870 5869 5869 5869 5868 5867 5866 5864 5862 5861 5858 5856 5853 5851 5849 5847 5844 5840 5837 5833 5828 5823 5817 5810 5804 5797 5789 5778 5767 5754 5743 5731 5720 5705 5687 5671 5659 5648
5871 5871 5871 5871 5871 5871 5870 5869 5869 5868 5868 5867 5866 5864 5862 5861 5860 5856 5854 5851 5850 5848 5845 5841 5838 5834 5828 5823 5818 5812 5804 5796 5789 5779 5767 5757 5743 5733 5720 5704 5688 5668 5649 5638 5630
5870 5870 5870 5870 5870 5869 5869 5869 5868 5868 5867 5866 5865 5863 5861 5859 5856 5854 5852 5850 5848 5845 5841 5837 5833 5829 5824 5818 5812 5806 5797 5789 5782 5771 5760 5746 5732 5720 5706 5691 5674 5653 5639 5628 5620
5869 5869 5869 5869 5869 5869 5868 5868 5868 5867 5866 5865 5863 5861 5859 5858 5854 5852 5850 5848 5845 5841 5837 5833 5828 5825 5820 5813 5807 5800 5792 5782 5774 5762 5748 5737 5720 5708 5694 5680 5661 5644 5634 5625 5620
5867 5867 5868 5868 5868 5868 5868 5867 5867 5866 5865 5863 5861 5859 5857 5855 5852 5850 5848 5846 5842 5838 5833 5829 5825 5820 5813 5808 5801 5795 5787 5776 5765 5753 5740 5727 5712 5702 5686 5669 5651 5639 5630 5623 5619
5866 5866 5867 5867 5868 5867 5867 5867 5866 5865 5864 5862 5860 5858 5855 5852 5851 5849 5846 5842 5838 5834 5830 5826 5821 5815 5810 5804 5798 5790 5784 5768 5756 5746 5733 5719 5708 5694 5676 5661 5645 5636 5629 5623 5618
5866 5866 5866 5867 5867 5867 5866 5866 5865 5864 5863 5861 5859 5856 5854 5851 5848 5846 5843 5839 5835 5830 5827 5822 5816 5810 5807 5801 5794 5785 5775 5763 5751 5740 5725 5710 5698 5684 5671 5655 5641 5634 5628 5622 5617
5865 5865 5866 5867 5867 5866 5866 5865 5864 5863 5861 5859 5857 5856 5852 5850 5846 5843 5839 5836 5831 5827 5823 5817 5812 5808 5802 5796 5785 5776 5769 5759 5746 5736 5720 5707 5695 5682 5666 5651 5638 5631 5625 5620 5615
5864 5864 5865 5866 5866 5866 5866 5865 5865 5863 5860 5857 5855 5852 5849 5846 5843 5840 5836 5833 5828 5823 5818 5813 5809 5804 5796 5787 5780 5772 5763 5754 5742 5728 5717 5703 5689 5677 5662 5650 5636 5626 5620 5615 5610
5863 5863 5864 5865 5866 5865 5865 5863 5862 5861 5858 5855 5852 5849 5846 5843 5839 5836 5833 5829 5824 5818 5814 5811 5805 5798 5790 5783 5775 5767 5759 5750 5738 5722 5712 5700 5685 5672 5660 5646 5633 5621 5615 5610 5605
5864 5864 5864 5865 5865 5865 5863 5862 5860 5858 5856 5852 5849 5846 5843 5840 5836 5833 5830 5824 5820 5816 5812 5806 5801 5794 5787 5779 5772 5763 5753 5743 5732 5720 5707 5693 5681 5668 5656 5641 5628 5616 5608 5603 5599
5866 5865 5865 5865 5865 5863 5862 5860 5857 5855 5853 5851 5847 5844 5841 5837 5833 5828 5824 5821 5816 5812 5806 5802 5796 5789 5783 5775 5766 5757 5747 5736 5728 5714 5700 5685 5678 5667 5654 5641 5627 5613 5604 5597 5593
5865 5865 5864 5863 5862 5861 5860 5857 5854 5852 5849 5848 5844 5840 5836 5833 5829 5823 5819 5816 5812 5807 5804 5799 5793 5786 5778 5770 5760 5752 5742 5732 5721 5711 5696 5681 5673 5661 5650 5637 5624 5612 5601 5593 5587
5865 5864 5864 5862 5861 5859 5857 5854 5852 5851 5847 5844 5841 5837 5834 5829 5824 5819 5815 5813 5810 5805 5800 5794 5789 5781 5772 5763 5754 5747 5738 5728 5716 5705 5693 5679 5667 5656 5642 5630 5619 5608 5596 5587 5580
5864 5863 5862 5861 5859 5857 5855 5853 5851 5847 5845 5842 5838 5834 5830 5826 5822 5817 5812 5808 5806 5804 5798 5790 5782 5775 5766 5757 5749 5739 5733 5723 5711 5699 5688 5674 5660 5649 5636 5626 5615 5604 5593 5582 5572
5863 5862 5860 5859 5857 5855 5852 5850 5847 5844 5840 5837 5834 5830 5826 5823 5819 5814 5810 5806 5801 5796 5790 5785 5775 5767 5760 5753 5742 5734 5724 5713 5699 5687 5682 5671 5656 5647 5633 5622 5610 5599 5588 5577 5566
5860 5859 5858 5856 5854 5851 5850 5846 5843 5840 5837 5834 5830 5827 5823 5818 5813 5810 5806 5801 5796 5791 5784 5776 5771 5762 5755 5747 5738 5728 5719 5711 5701 5689 5675 5668 5653 5645 5629 5616 5605 5593 5581 5569 5559
5858 5857 5855 5853 5851 5849 5847 5843 5840 5837 5833 5829 5826 5823 5819 5814 5810 5805 5799 5796 5791 5786 5779 5773 5767 5758 5750 5742 5733 5724 5714 5703 5691 5679 5667 5658 5641 5627 5618 5607 5595 5584 5573 5561 5549
5855 5854 5852 5850 5848 5846 5843 5840 5837 5834 5830 5827 5822 5818 5815 5811 5806 5801 5796 5792 5786 5781 5775 5767 5762 5756 5744 5737 5728 5719 5708 5697 5687 5674 5659 5643 5640 5623 5612 5602 5589 5577 5565 5553 5540
5851 5850 5848 5846 5845 5842 5840 5837 5834 5830 5827 5823 5819 5815 5810 5806 5804 5798 5793 5787 5781 5775 5769 5762 5755 5750 5741 5732 5723 5712 5704 5693 5681 5668 5657 5641 5635 5616 5603 5592 5581 5570 5557 5545 5530
5847 5846 5844 5842 5840 5838 5835 5833 5829 5827 5823 5820 5816 5812 5807 5802 5797 5793 5789 5784 5777 5771 5763 5756 5749 5742 5736 5727 5717 5706 5699 5690 5679 5667 5653 5639 5628 5612 5600 5590 5577 5565 5552 5537 5521
5843 5842 5840 5838 5836 5833 5831 5828 5826 5823 5820 5815 5811 5807 5802 5799 5794 5787 5782 5778 5773 5767 5759 5752 5745 5734 5730 5720 5712 5702 5692 5685 5672 5659 5649 5637 5625 5616 5603 5588 5575 5561 5545 5527 5510
5837 5836 5835 5833 5831 5829 5826 5823 5820 5818 5815 5810 5808 5802 5797 5792 5789 5783 5778 5771 5767 5761 5754 5747 5740 5730 5725 5714 5705 5698 5687 5677 5668 5657 5644 5632 5616 5600 5587 5575 5561 5549 5535 5519 5505
5830 5830 5829 5828 5825 5823 5820 5818 5815 5811 5808 5805 5799 5797 5792 5786 5782 5775 5771 5765 5759 5752 5745 5739 5731 5723 5720 5710 5701 5693 5681 5672 5663 5649 5637 5624 5614 5595 5582 5570 5552 5538 5525 5511 5496
5821 5821 5820 5822 5819 5816 5814 5810 5808 5804 5804 5798 5793 5789 5784 5779 5773 5768 5763 5757 5751 5745 5739 5734 5725 5719 5713 5702 5694 5689 5677 5668 5659 5648 5633 5619 5605 5592 5578 5564 5548 5538 5520 5504 5487
Wind_Speed
4 4 5 7 8 9 10 10 10 9 8 8 9 10 12 13 13 12 11 12 15 17 18 22 20 23 24 28 34 38 42 44 49 53 56 58 61 60 60 60 61 63 64 65 68
6 6 6 6 7 8 9 8 8 8 7 8 9 10 14 15 15 15 15 14 14 17 19 21 20 23 27 32 35 40 43 47 50 55 58 60 61 62 62 64 66 64 69 71 72
8 8 8 8 9 9 9 7 7 6 6 8 10 13 15 15 15 14 13 14 17 19 20 21 22 25 31 34 36 42 45 49 53 56 60 60 61 62 63 65 66 72 74 63 59
9 9 9 9 9 9 8 7 6 5 6 8 11 14 15 15 15 13 14 17 19 20 20 20 23 28 33 35 39 43 47 52 55 58 60 59 61 61 64 65 71 74 60 48 46
6 7 7 8 8 8 6 6 5 6 7 10 12 14 15 16 15 14 15 18 20 21 24 23 26 31 34 38 41 45 51 55 56 59 60 60 61 63 65 65 74 68 48 38 32
6 6 6 6 6 5 4 4 4 6 9 11 14 15 15 15 14 15 17 20 23 24 25 24 27 33 36 40 45 47 50 55 56 59 60 61 64 66 67 68 67 50 39 30 24
6 6 5 4 4 4 3 3 4 7 10 13 15 15 17 17 16 16 18 20 23 24 25 26 29 35 39 43 45 45 48 54 57 60 60 62 65 65 66 69 57 41 36 28 24
2 2 2 2 3 4 3 3 4 8 12 13 15 17 18 18 16 18 20 22 24 24 26 26 31 35 38 43 42 44 47 56 61 60 62 64 64 63 65 67 49 36 33 28 24
2 1 2 2 2 3 4 5 6 10 13 14 16 17 17 18 19 20 20 22 23 24 26 27 33 36 38 40 40 45 52 56 62 62 62 64 65 64 65 63 47 33 30 25 25
4 4 3 4 4 4 4 6 9 12 15 15 17 17 19 19 20 21 23 23 25 27 26 29 33 35 38 39 45 49 53 55 61 61 61 62 63 62 64 63 42 32 26 23 26
3 5 4 4 4 1 3 7 11 14 16 16 18 19 20 20 21 22 23 24 26 26 26 30 33 35 39 43 45 49 53 54 59 61 61 61 62 61 63 62 43 30 25 27 26
2 3 3 2 2 2 5 9 12 15 17 17 17 20 21 22 24 25 25 26 25 24 25 30 33 36 41 43 46 48 52 54 57 62 63 60 59 60 60 62 53 32 27 27 28
6 6 6 3 1 5 8 11 14 17 18 20 18 21 22 23 25 25 26 25 22 22 25 29 33 37 41 44 44 46 51 56 59 62 63 64 60 58 59 60 55 45 30 28 29
2 2 0 3 5 7 11 15 18 19 19 18 20 20 22 23 26 28 26 21 20 21 27 30 35 38 40 42 44 46 50 56 59 64 65 67 63 58 56 59 55 48 35 31 31
2 5 7 9 11 12 15 18 20 21 21 19 20 22 24 26 28 29 24 20 18 23 27 30 34 36 40 42 47 49 51 54 60 63 66 65 65 63 58 57 58 53 43 32 32
5 6 7 9 12 15 17 18 18 17 17 19 21 22 23 25 27 28 22 16 18 23 27 31 34 36 41 44 48 49 50 55 60 63 66 65 63 64 61 59 60 59 51 41 34
7 8 10 11 13 15 17 18 18 17 19 19 21 22 22 23 24 24 19 18 21 22 25 31 36 36 41 46 48 52 51 54 61 64 66 65 64 62 61 61 60 60 56 49 36
9 11 13 15 18 19 19 19 19 19 19 21 22 23 23 22 23 24 21 22 25 28 31 33 39 41 43 46 49 52 53 58 62 67 66 67 65 63 61 62 60 60 61 55 43
11 13 16 19 20 20 19 19 19 20 21 22 22 21 23 25 26 25 24 25 27 30 34 38 39 41 42 45 49 52 53 56 58 62 66 66 69 65 63 62 62 63 62 63 56
14 16 18 20 21 21 21 21 21 22 23 23 23 23 24 25 26 28 28 29 29 32 34 36 38 42 42 45 48 51 53 57 62 65 68 69 70 67 66 64 65 66 65 67 63
18 19 20 21 20 20 20 21 22 22 24 26 27 27 27 26 27 29 31 30 32 34 36 38 38 41 45 45 49 50 52 54 60 64 68 74 65 71 67 65 67 66 67 70 70
19 20 21 21 21 20 22 22 23 23 25 28 30 32 30 28 27 30 33 34 35 37 39 41 42 40 45 46 48 50 51 53 58 63 66 71 66 73 70 68 70 69 68 71 73
21 21 23 23 23 22 23 24 24 24 26 27 29 32 31 32 33 31 33 33 34 37 41 43 45 45 45 49 48 51 51 51 55 59 63 68 71 71 70 69 69 70 69 71 75
24 24 26 26 25 24 25 26 27 26 29 30 33 34 35 33 33 35 35 35 36 37 40 43 45 47 44 46 45 48 51 51 54 59 61 67 68 68 70 70 68 69 71 73 78
28 28 28 28 28 29 29 29 30 30 32 34 34 36 39 39 34 33 34 36 35 38 40 44 47 52 47 48 48 49 52 53 53 57 61 66 71 73 75 73 74 74 73 75 80
34 33 32 31 31 33 34 34 35 35 35 36 38 38 41 42 41 42 40 40 39 40 42 45 49 51 50 51 53 48 53 54 53 57 61 67 70 72 74 73 77 76 76 78 82
38 37 37 34 36 37 36 37 38 40 38 40 43 44 43 41 41 41 41 41 43 44 46 48 51 50 50 52 52 49 52 54 53 54 59 65 72 72 75 72 76 76 77 79 84
Wind_Direction
253 276 293 307 313 318 322 328 332 342 344 358 354 348 344 346 347 345 334 346 348 345 349 350 346 346 335 340 346 348 346 340 342 341 333 330 327 321 316 316 311 308 304 297 290
261 275 289 307 320 328 326 321 337 346 350 347 341 341 343 344 348 342 345 340 342 347 346 343 349 339 342 347 347 345 343 344 342 341 336 332 329 323 321 319 316 310 304 293 285
271 278 290 303 312 316 332 342 348 340 344 337 339 337 337 339 341 341 341 343 349 343 337 345 345 346 348 348 346 346 346 344 345 341 337 334 328 325 324 325 323 316 306 301 290
276 277 286 295 300 309 325 340 341 335 332 335 333 333 331 335 334 342 347 354 343 335 337 339 341 345 348 347 348 349 349 347 346 341 338 335 329 328 330 330 327 318 317 309 298
289 293 289 291 298 308 314 333 331 327 331 331 331 329 335 334 336 338 344 345 334 336 338 342 344 348 347 351 350 352 352 347 346 343 340 336 333 334 334 335 332 322 326 321 315
283 289 292 291 295 304 315 321 321 322 332 336 333 332 335 326 333 341 339 332 330 338 343 341 344 347 348 352 353 354 353 347 345 344 342 340 336 337 339 338 334 329 333 334 335
278 271 271 277 281 290 306 301 307 330 341 338 334 332 336 337 334 333 329 330 337 340 341 340 343 347 353 351 353 354 353 347 346 346 344 342 339 342 342 343 337 334 337 336 333
289 241 228 232 268 285 290 283 314 337 343 341 337 334 332 328 325 321 327 335 336 339 342 343 347 349 354 352 352 352 354 351 350 348 346 342 342 346 347 347 340 336 337 333 330
255 218 202 212 256 279 292 308 329 336 336 335 335 332 327 325 326 327 334 336 338 342 344 349 350 351 350 350 350 354 358 356 351 351 346 344 346 350 350 351 341 336 336 334 329
250 238 235 249 263 280 309 325 329 330 332 333 334 328 331 329 329 331 336 338 342 342 349 351 349 348 347 349 354 357 0 360 353 352 348 346 348 351 353 353 339 332 332 320 316
237 233 238 263 285 264 324 326 330 329 327 328 332 333 330 330 336 337 335 335 337 341 349 348 346 346 349 353 355 357 360 1 353 352 350 349 350 355 356 356 346 325 321 315 315
93 185 198 188 134 339 338 341 335 330 329 329 328 329 332 333 334 334 334 333 338 344 343 343 345 347 349 353 354 357 357 359 356 353 351 351 352 356 356 356 355 322 307 309 312
82 108 124 140 333 341 337 331 330 330 328 329 327 330 335 333 330 330 328 333 338 340 341 344 344 346 350 350 354 355 357 358 359 355 352 351 355 357 356 357 357 343 311 302 305
73 86 248 300 309 312 320 322 321 321 320 322 322 325 325 326 327 329 332 336 340 342 343 347 346 345 346 348 352 355 357 356 358 355 354 351 356 357 357 358 359 352 332 306 304
340 312 296 291 297 303 312 315 317 319 321 321 323 324 326 328 332 336 338 342 343 344 345 345 346 344 344 349 352 354 355 355 355 356 355 352 354 357 358 358 358 358 349 323 312
353 338 325 315 312 312 317 322 325 327 330 327 326 327 331 336 338 338 337 340 346 345 341 341 345 345 348 349 351 351 353 354 354 358 355 351 354 357 356 358 358 358 352 342 321
350 344 337 333 328 325 326 328 328 326 327 326 327 331 332 332 336 340 337 338 337 340 340 342 344 346 350 347 349 349 350 353 353 355 354 354 351 355 355 355 356 356 355 349 333
324 326 328 328 327 327 328 328 327 325 324 324 329 332 333 331 332 337 335 332 334 337 343 347 343 347 348 347 347 346 349 351 349 348 352 354 347 353 356 354 353 354 354 352 338
310 316 323 327 329 330 330 332 332 332 328 327 330 334 337 336 335 337 337 331 331 336 342 344 347 344 345 347 344 343 345 347 347 346 350 353 347 351 355 353 352 353 354 351 351
312 315 318 321 324 325 327 327 329 330 328 328 330 331 333 334 336 336 335 334 333 332 338 342 342 342 342 346 342 342 341 343 344 345 346 350 349 350 353 351 351 351 354 352 350
310 312 312 314 316 319 325 328 328 330 333 333 331 327 328 331 333 333 332 330 331 333 335 336 339 341 339 342 341 341 340 341 344 344 345 345 353 350 349 349 350 348 351 352 349
306 311 311 312 312 313 317 318 322 325 328 330 335 336 325 325 331 332 336 333 332 333 334 334 335 339 337 336 341 338 339 340 340 342 345 343 353 349 346 349 348 347 346 347 347
303 307 311 308 307 307 312 315 314 316 323 326 329 334 333 325 324 327 328 330 328 330 330 332 332 331 334 334 340 334 336 338 340 340 342 344 347 345 345 348 345 345 345 345 346
297 301 304 305 305 305 307 308 309 314 316 318 319 325 326 326 325 322 322 325 327 327 326 327 330 325 332 331 333 332 333 336 339 339 340 341 341 341 342 346 344 346 345 345 347
291 293 299 303 304 303 304 305 306 308 309 312 316 321 322 324 324 322 320 318 320 321 321 323 325 324 327 327 329 332 332 335 338 337 338 339 340 340 342 345 344 346 346 346 348
287 290 293 298 302 300 302 303 303 302 304 306 309 314 315 316 319 320 319 318 319 318 317 318 318 320 325 322 323 329 329 335 336 336 336 337 339 338 340 344 343 346 346 345 348
281 283 287 291 295 298 301 301 301 300 301 303 305 308 308 308 311 312 312 311 312 314 315 317 313 316 321 319 320 325 330 333 334 336 336 336 337 339 339 344 341 344 345 345 347